Temperature
19 20 21 22 22 21 20 19 20 20 20 21 21 20 22 23 23 23 23 23 23 23 23 23 23 23 23 23 22 22 22 21 21 21 20 20 20 19 19 19 19 18 18 18
20 20 21 21 21 21 21 20 20 21 20 20 20 21 22 22 22 22 23 23 23 23 23 23 22 22 22 22 22 22 21 21 21 21 20 20 20 19 19 19 18 18 18 18
18 19 21 21 21 21 20 20 20 20 20 19 19 20 21 22 22 22 23 23 23 23 23 23 22 22 22 22 22 21 21 21 21 20 20 20 19 19 19 19 18 18 18 17
16 19 20 20 20 20 20 20 19 19 19 18 19 20 21 22 22 22 22 23 23 23 23 23 22 22 22 21 21 21 21 21 20 20 20 20 19 19 19 18 18 18 17 17
15 17 18 20 20 20 20 19 18 18 18 19 19 20 20 21 21 22 22 22 23 23 23 22 22 22 21 21 21 21 20 20 20 20 19 19 19 19 18 18 18 17 17 17
14 17 18 19 20 20 19 19 18 18 17 18 18 18 19 21 21 22 22 22 22 22 22 22 21 21 21 21 21 21 20 20 20 19 19 19 18 18 18 18 17 17 17 17
15 16 17 17 18 20 19 18 18 18 18 17 17 18 19 20 21 21 22 22 22 22 22 22 21 21 21 21 20 20 20 20 19 19 19 18 18 18 17 17 17 17 17 16
13 16 17 17 18 17 17 18 18 18 18 18 18 18 19 20 20 21 21 22 22 22 22 21 21 21 21 20 20 20 19 19 19 19 18 18 18 17 17 17 17 16 16 16
13 15 15 16 17 18 18 18 18 18 18 18 18 19 19 20 20 20 21 21 21 21 21 21 21 21 21 20 20 20 19 19 19 18 18 18 17 17 16 16 16 16 15 15
13 14 15 16 17 18 18 18 18 19 19 19 18 19 19 19 20 20 20 20 20 20 20 21 21 20 20 20 20 19 19 19 18 18 18 17 17 16 16 16 16 15 15 15
13 13 15 16 17 17 17 18 18 18 19 19 19 19 19 19 19 19 19 20 20 20 20 20 20 20 20 20 19 19 19 18 18 18 17 17 16 16 16 16 16 15 15 15
13 14 13 15 16 17 17 17 17 18 18 18 18 18 18 18 18 19 19 19 19 19 20 20 20 20 20 19 19 19 18 18 18 17 17 17 16 16 15 15 15 15 14 14
15 15 15 15 16 16 16 17 17 17 17 17 18 18 18 18 18 18 18 19 19 19 19 19 19 19 19 19 19 18 18 18 17 17 17 16 16 15 15 15 15 14 14 14
15 14 14 15 15 15 16 16 16 16 17 17 17 17 17 17 17 17 18 18 18 18 18 18 19 19 19 18 18 18 18 17 17 17 16 16 16 15 15 15 14 14 14 14
14 15 14 15 15 15 15 16 16 16 16 16 17 17 17 17 17 17 17 17 18 17 18 18 18 18 18 18 18 17 17 17 17 16 16 16 16 15 15 14 14 14 14 14
14 14 14 14 14 14 15 15 15 15 15 16 16 16 16 16 16 17 17 17 17 17 17 17 17 17 17 17 17 17 17 16 16 16 16 15 15 15 14 14 14 14 14 14
13 13 13 13 14 14 14 15 15 15 15 15 16 16 16 16 16 16 16 16 16 16 16 16 16 16 16 16 16 16 16 16 16 16 15 15 15 15 14 14 14 14 13 13
14 13 14 14 14 14 14 14 14 15 15 15 15 15 15 16 16 16 16 16 15 16 16 16 16 16 16 16 16 16 16 15 15 15 15 15 15 14 14 14 14 13 13 13
14 14 14 14 14 14 14 14 14 14 14 15 15 15 15 15 15 15 15 15 15 15 15 15 15 15 15 15 15 15 15 15 15 15 14 14 14 14 14 13 13 13 13 12
13 13 13 13 13 13 13 13 13 14 14 14 14 14 15 15 15 15 15 14 15 15 15 14 14 15 15 15 15 15 15 15 14 14 14 14 14 13 13 13 13 12 12 12
13 13 13 13 13 13 13 13 13 13 14 14 14 14 14 14 14 14 14 14 14 14 14 14 14 14 14 14 14 14 14 14 14 14 14 13 13 13 12 12 12 12 12 11
12 12 12 12 12 12 12 13 13 13 13 13 13 13 13 13 13 14 14 14 14 13 13 13 13 14 14 14 14 14 13 13 13 13 13 13 13 12 12 12 12 11 11 11
12 12 12 12 12 12 12 12 13 13 13 13 13 13 13 13 13 13 13 13 13 13 13 13 13 13 13 13 13 13 13 13 13 13 12 12 12 12 12 12 11 11 11 10
12 12 12 12 12 12 12 12 12 12 12 13 13 13 13 12 12 13 13 13 13 13 13 13 13 13 13 13 13 13 13 12 12 12 12 12 12 12 11 11 11 11 10 10
11 12 12 12 12 12 12 12 12 12 12 12 12 12 12 12 12 12 12 12 12 12 12 13 13 13 13 12 12 12 12 12 12 11 11 11 11 11 11 11 10 10 10 10
11 11 11 11 11 11 11 12 12 12 12 11 11 11 11 12 12 12 12 11 12 12 12 12 12 12 12 12 12 11 11 11 11 11 11 11 11 11 10 10 10 10 10 9
11 11 11 11 11 11 11 11 11 11 11 11 11 11 11 11 11 11 11 11 11 11 11 11 11 11 11 11 11 11 11 11 11 11 10 10 10 10 10 10 10 9 9 9
Wind_Speed
3 3 3 2 3 4 5 7 8 8 8 9 7 6 6 5 4 4 4 5 5 6 6 5 5 6 6 6 6 6 6 6 7 6 5 5 4 4 4 3 4 3 3 3
2 2 1 1 2 4 4 3 4 3 6 6 4 2 2 4 5 5 5 5 6 6 6 6 7 6 5 5 5 5 6 6 5 4 4 5 5 5 4 4 3 3 3 3
1 3 3 3 4 4 3 2 4 5 6 3 2 2 3 4 5 6 6 6 7 7 7 7 7 6 6 5 5 5 5 5 4 4 5 5 4 4 5 5 4 3 3 3
1 2 4 7 2 2 3 1 1 2 3 2 3 3 1 1 4 4 4 4 5 5 5 5 5 5 5 5 5 5 5 4 4 4 4 3 4 4 4 4 4 3 3 3
3 3 4 5 1 1 2 1 1 1 2 2 2 3 4 2 1 3 4 4 4 5 4 4 4 5 5 5 5 5 5 5 4 5 4 4 4 4 3 3 3 2 2 3
4 4 6 6 4 3 3 2 3 1 1 2 4 2 3 4 3 1 1 2 2 3 3 3 3 5 6 5 5 6 6 5 5 4 5 5 4 4 2 3 3 3 2 2
4 4 6 5 6 1 4 5 2 0 1 1 1 3 4 4 2 1 0 0 2 4 4 3 4 5 6 5 6 6 5 4 4 4 4 4 4 3 3 2 2 2 2 2
4 4 6 4 2 3 4 2 1 1 0 1 1 2 3 2 2 2 3 3 2 2 3 3 4 6 5 6 5 4 4 4 4 4 4 3 4 3 3 3 3 2 2 2
6 6 4 3 3 3 2 1 1 1 1 1 1 2 3 3 2 2 2 2 1 1 2 3 4 5 6 6 5 5 5 5 4 4 4 4 5 4 3 3 3 2 2 3
1 4 5 4 3 2 1 1 2 1 0 0 1 2 2 3 2 2 2 1 1 1 2 2 4 5 6 5 5 6 5 4 4 4 3 3 3 4 4 4 4 3 3 4
3 4 4 4 4 4 3 3 2 3 2 0 1 1 2 3 3 2 2 1 0 1 3 4 4 4 4 5 6 5 5 5 4 4 5 4 3 3 5 5 6 6 5 5
6 6 4 5 5 4 3 3 2 3 3 3 1 1 2 3 3 2 2 2 2 2 3 4 4 4 4 5 6 6 5 5 4 4 4 4 3 1 2 3 5 7 7 6
6 5 5 5 5 5 4 3 3 2 2 3 3 1 1 3 4 3 2 2 3 4 3 3 3 4 4 4 6 7 7 6 5 4 4 4 4 4 2 2 2 4 6 6
6 4 4 5 6 5 3 3 2 3 3 2 2 2 2 3 3 3 4 4 3 2 2 2 3 3 3 4 5 6 6 6 5 5 5 5 5 5 4 3 3 2 3 4
6 6 6 5 5 4 3 2 2 3 3 3 2 2 2 3 4 4 4 3 1 1 2 1 2 3 2 3 4 5 5 5 5 4 4 5 5 4 4 4 3 3 1 1
4 3 4 4 5 5 3 3 3 4 3 3 3 3 3 4 4 4 3 2 1 2 3 2 3 3 2 3 4 4 4 6 5 4 4 4 4 4 4 4 3 3 3 3
3 4 4 5 6 6 5 5 5 5 4 4 5 5 4 3 4 4 3 2 2 3 3 3 3 2 2 3 4 3 3 4 5 4 4 4 4 4 4 4 4 4 4 4
8 9 8 7 7 6 6 5 5 5 6 6 5 4 4 4 4 4 4 3 2 2 3 3 2 2 1 2 3 3 3 3 3 3 3 3 3 4 4 4 4 4 2 2
6 7 7 7 7 6 6 6 6 6 6 5 5 5 5 5 4 4 3 1 2 3 4 3 2 1 1 1 2 3 3 3 3 2 3 3 3 3 3 3 3 3 3 2
5 5 5 4 4 5 6 6 5 5 5 5 4 4 4 4 3 2 2 2 3 4 4 3 2 1 2 2 2 3 3 4 4 3 3 3 3 3 3 3 3 3 2 2
4 3 3 3 4 4 4 5 4 5 5 4 5 5 4 4 3 2 2 3 4 3 2 2 2 2 2 2 2 2 3 3 4 4 3 3 3 3 4 3 3 3 3 3
3 3 3 3 3 3 3 4 4 4 3 3 3 3 3 3 2 2 2 3 3 2 1 1 2 3 2 2 1 2 3 3 3 3 3 3 3 3 3 3 3 3 3 3
3 3 3 3 3 3 3 3 3 3 3 4 3 4 4 3 2 2 2 2 2 2 2 2 2 2 2 2 2 2 3 3 3 3 3 3 3 3 3 3 3 3 3 3
3 3 2 2 1 1 2 3 2 2 2 2 2 3 3 2 1 2 1 1 2 2 1 1 1 0 1 1 2 2 2 2 2 2 3 3 2 2 3 3 3 3 3 3
4 3 2 1 0 1 2 1 0 1 1 1 0 0 1 1 1 1 0 0 0 1 1 1 2 2 2 2 2 2 2 2 2 3 3 2 2 3 3 4 4 4 3 3
3 2 1 1 1 1 1 1 1 1 1 1 1 1 1 2 2 2 2 1 2 2 2 2 2 3 2 2 3 3 3 3 3 3 3 3 3 3 3 4 4 3 3 3
3 2 1 1 1 0 0 1 2 1 1 1 1 1 2 2 2 2 3 2 2 2 2 3 3 3 3 3 3 3 3 3 3 3 3 3 3 3 4 4 3 3 3 2
Wind_Direction
236 245 205 214 211 183 183 181 182 217 220 242 243 242 240 223 202 185 185 178 181 187 189 186 187 191 192 196 193 188 185 197 208 206 199 197 197 201 203 206 216 210 207 225
336 333 360 290 250 202 210 186 203 208 248 255 268 256 242 204 179 185 192 189 186 184 179 183 188 189 186 188 184 175 184 201 201 194 194 197 201 197 195 203 209 201 207 215
249 307 34 285 249 204 206 212 176 208 246 288 299 271 232 218 190 191 199 194 188 187 186 189 189 181 183 187 171 172 188 196 191 188 194 201 201 194 201 207 204 201 213 212
147 92 213 240 263 174 164 154 264 252 278 261 243 258 270 194 181 200 211 208 200 191 187 187 181 175 174 163 168 178 186 191 189 187 192 191 192 203 208 204 198 203 215 220
129 170 266 292 295 161 156 259 341 305 322 337 353 27 6 360 188 219 219 210 201 191 183 170 168 167 153 156 164 173 187 195 192 188 188 191 200 205 199 189 200 205 212 218
129 155 221 243 288 292 131 256 322 355 332 8 60 68 290 315 312 274 243 205 176 155 140 145 166 150 151 170 175 190 201 202 195 189 190 193 197 192 179 176 193 197 215 224
157 201 254 270 300 30 156 241 287 352 342 65 118 228 266 301 309 279 130 118 143 136 141 165 162 151 166 178 195 204 193 181 179 184 189 186 177 172 164 172 181 197 210 237
156 187 246 305 34 152 215 253 164 170 196 162 266 320 329 333 325 2 32 41 80 127 153 159 155 158 176 195 205 182 168 169 175 178 183 181 167 170 168 172 184 208 207 245
188 211 251 292 249 253 223 203 235 220 259 195 3 347 340 336 342 7 30 34 52 138 151 155 171 175 186 204 184 166 167 178 178 172 175 174 173 178 178 183 194 214 223 243
260 273 283 299 293 304 282 248 260 241 246 135 15 325 335 336 335 351 355 14 27 97 157 187 195 199 200 190 175 168 177 189 181 171 174 180 189 188 189 198 203 212 225 241
255 274 312 308 303 311 333 351 360 350 336 282 121 322 324 323 311 304 310 324 304 214 213 220 214 210 198 178 168 173 182 192 190 184 186 190 200 202 200 209 204 207 219 224
229 233 225 257 280 295 315 318 319 339 342 336 316 310 328 313 300 295 302 304 276 254 238 230 217 219 208 180 170 174 187 194 195 192 192 192 194 223 265 236 222 218 221 221
232 245 241 259 283 286 275 281 293 290 283 311 319 325 320 303 304 306 304 297 274 263 259 242 220 225 220 190 179 182 190 195 193 192 192 197 199 203 237 297 279 236 236 238
235 244 268 268 266 274 263 261 285 294 289 273 284 314 313 304 293 294 290 282 276 280 290 252 225 230 223 194 186 191 191 192 191 195 197 201 204 208 211 220 238 269 260 243
263 242 235 253 272 278 266 255 274 283 292 305 297 290 291 294 283 275 274 277 289 311 301 281 252 258 236 194 191 193 190 193 197 200 203 205 204 205 214 221 227 239 253 274
271 263 233 239 258 269 256 234 238 256 257 270 283 282 283 281 277 282 293 308 310 292 285 277 270 265 239 203 191 193 200 199 195 196 202 205 206 208 213 213 221 232 234 237
240 253 246 248 254 254 245 238 234 243 247 246 251 263 272 282 285 293 299 300 274 264 266 265 268 265 231 207 195 197 199 198 193 198 205 208 205 209 214 212 217 226 236 227
231 235 237 235 237 244 251 246 241 240 243 247 250 256 260 254 253 260 273 288 303 306 297 281 270 250 226 209 196 186 183 189 195 204 205 211 211 205 207 212 215 218 229 220
244 240 244 245 241 237 242 244 247 250 252 248 243 243 244 249 246 247 256 273 290 296 293 291 295 266 240 227 192 175 175 178 183 197 199 199 209 210 206 206 210 212 212 206
257 254 245 248 253 248 250 252 247 250 250 238 234 235 243 253 246 236 246 267 263 258 267 282 300 281 249 221 190 185 183 182 185 192 194 199 206 210 207 205 204 204 202 200
267 270 264 252 256 256 252 250 241 242 243 226 218 225 234 248 242 218 223 271 286 275 271 290 288 270 250 225 206 197 189 189 191 192 194 194 193 198 200 200 198 194 196 198
295 290 284 266 257 267 262 245 235 235 237 228 225 221 218 236 245 260 266 258 276 294 304 279 268 257 241 212 197 200 191 189 194 191 185 181 183 191 195 192 189 190 188 184
300 290 286 269 246 249 264 252 234 219 219 220 220 216 214 227 234 235 283 297 287 296 296 273 268 258 231 183 178 185 184 184 183 182 182 181 182 184 185 184 181 173 168 169
311 308 292 276 243 220 265 275 260 231 211 218 217 206 190 200 278 288 268 283 298 297 289 270 253 249 132 141 156 166 167 171 171 173 174 171 170 173 171 163 156 153 155 158
309 307 305 312 223 239 244 251 129 98 81 52 56 110 163 188 204 242 85 126 351 6 39 47 63 69 88 113 132 136 139 147 153 155 153 150 156 160 161 157 152 149 148 150
305 307 299 261 235 237 235 168 125 103 99 82 50 47 62 71 87 97 93 85 74 60 59 61 62 66 83 101 110 116 124 130 128 129 136 139 140 143 144 142 138 139 140 141
343 356 13 9 320 262 138 137 130 120 119 119 93 61 78 82 84 84 81 74 66 66 68 70 70 71 78 89 96 96 96 98 102 107 114 117 118 123 124 121 121 121 122 123
Height
1495 1491 1490 1490 1490 1492 1495 1499 1505 1500 1498 1488 1483 1481 1481 1481 1483 1485 1487 1489 1491 1493 1495 1498 1500 1502 1504 1507 1509 1512 1513 1515 1516 1518 1520 1521 1522 1522 1523 1524 1524 1524 1524 1524
1495 1490 1489 1490 1488 1489 1490 1491 1493 1492 1491 1480 1480 1479 1479 1480 1481 1483 1485 1487 1489 1491 1493 1495 1497 1499 1502 1504 1507 1508 1510 1512 1514 1515 1516 1517 1518 1519 1520 1520 1521 1521 1521 1521
1503 1495 1490 1498 1490 1488 1489 1488 1489 1492 1487 1480 1479 1479 1478 1479 1480 1481 1483 1485 1487 1489 1490 1493 1495 1497 1499 1502 1504 1506 1507 1509 1510 1511 1513 1514 1515 1516 1516 1517 1517 1517 1517 1518
1507 1500 1507 1495 1482 1482 1485 1486 1485 1484 1482 1480 1479 1477 1477 1478 1480 1481 1483 1484 1485 1487 1489 1491 1493 1496 1498 1500 1502 1503 1505 1506 1507 1508 1509 1510 1512 1512 1513 1513 1514 1514 1514 1515
1511 1509 1503 1490 1482 1483 1486 1488 1484 1483 1481 1480 1478 1478 1478 1479 1479 1480 1481 1483 1484 1486 1487 1489 1492 1494 1495 1497 1499 1500 1502 1503 1504 1505 1506 1507 1508 1509 1510 1511 1511 1512 1512 1512
1509 1509 1510 1492 1480 1478 1483 1490 1483 1482 1481 1480 1479 1484 1482 1479 1479 1479 1481 1482 1483 1484 1486 1488 1490 1491 1493 1495 1496 1497 1499 1500 1502 1503 1504 1505 1506 1507 1507 1508 1508 1509 1509 1509
1507 1506 1499 1485 1479 1478 1492 1491 1482 1481 1481 1481 1482 1483 1481 1479 1479 1479 1480 1481 1482 1483 1484 1486 1488 1490 1491 1493 1494 1495 1497 1498 1499 1500 1501 1502 1503 1504 1504 1505 1505 1505 1505 1506
1507 1506 1500 1482 1480 1484 1485 1481 1481 1481 1481 1481 1480 1480 1479 1479 1478 1478 1478 1479 1480 1482 1483 1485 1486 1488 1489 1490 1492 1494 1495 1495 1497 1498 1499 1500 1501 1501 1502 1502 1502 1501 1502 1502
1496 1495 1486 1482 1481 1481 1480 1480 1480 1480 1480 1480 1479 1479 1479 1478 1478 1478 1478 1479 1479 1480 1481 1483 1485 1486 1487 1489 1490 1491 1492 1493 1494 1495 1496 1497 1498 1498 1499 1499 1499 1498 1499 1498
1491 1486 1483 1481 1479 1479 1479 1479 1479 1480 1480 1479 1478 1479 1478 1478 1477 1477 1478 1478 1478 1479 1480 1481 1483 1485 1486 1487 1488 1488 1489 1490 1491 1492 1492 1494 1495 1495 1495 1495 1495 1495 1495 1495
1488 1484 1481 1480 1479 1479 1479 1479 1479 1478 1479 1478 1477 1477 1477 1477 1477 1477 1477 1477 1478 1478 1478 1479 1481 1482 1483 1484 1485 1485 1487 1488 1488 1489 1490 1491 1491 1491 1491 1492 1492 1493 1492 1493
1485 1481 1481 1479 1478 1478 1477 1477 1477 1477 1477 1477 1476 1476 1476 1476 1476 1476 1476 1476 1476 1476 1476 1477 1478 1479 1480 1481 1482 1483 1483 1484 1485 1485 1486 1487 1487 1488 1488 1489 1489 1490 1490 1490
1477 1477 1477 1476 1476 1476 1475 1475 1476 1476 1475 1475 1475 1475 1475 1475 1475 1475 1475 1474 1474 1473 1473 1474 1475 1476 1477 1478 1479 1479 1480 1480 1481 1482 1483 1483 1484 1484 1484 1485 1486 1486 1486 1487
1474 1475 1474 1474 1473 1473 1473 1473 1473 1473 1473 1474 1474 1474 1474 1474 1474 1474 1473 1472 1472 1471 1471 1471 1471 1472 1473 1475 1475 1476 1477 1477 1478 1479 1479 1480 1480 1481 1481 1481 1481 1482 1483 1483
1471 1471 1471 1470 1470 1470 1470 1470 1470 1470 1470 1471 1472 1472 1472 1471 1471 1471 1470 1470 1469 1469 1468 1468 1468 1469 1470 1471 1472 1472 1473 1474 1474 1475 1476 1476 1477 1477 1478 1478 1478 1478 1479 1479
1467 1467 1467 1467 1466 1466 1467 1467 1467 1467 1468 1468 1469 1469 1469 1469 1469 1468 1467 1466 1466 1465 1466 1466 1465 1466 1467 1467 1468 1468 1469 1470 1471 1471 1472 1472 1473 1473 1473 1474 1474 1474 1474 1475
1463 1463 1463 1463 1462 1463 1463 1464 1464 1464 1465 1465 1466 1466 1466 1466 1465 1465 1465 1464 1464 1464 1463 1463 1462 1463 1463 1464 1464 1464 1465 1466 1467 1467 1468 1468 1469 1470 1470 1470 1470 1471 1471 1471
1459 1459 1460 1459 1459 1458 1459 1459 1460 1460 1460 1461 1462 1463 1463 1462 1462 1462 1462 1462 1461 1460 1460 1460 1459 1459 1459 1460 1460 1461 1461 1462 1462 1463 1464 1465 1465 1465 1466 1467 1467 1467 1467 1468
1455 1455 1455 1455 1456 1455 1455 1455 1456 1456 1457 1458 1458 1459 1459 1459 1459 1459 1459 1458 1457 1457 1457 1457 1456 1456 1456 1456 1457 1457 1457 1458 1458 1460 1460 1460 1461 1462 1462 1463 1463 1463 1463 1463
1451 1451 1451 1451 1451 1451 1451 1451 1452 1452 1453 1454 1455 1455 1455 1455 1455 1455 1455 1455 1454 1453 1453 1452 1452 1452 1453 1453 1453 1453 1454 1454 1455 1456 1456 1457 1457 1458 1458 1459 1459 1459 1459 1460
1447 1447 1446 1446 1447 1447 1448 1448 1448 1448 1449 1450 1450 1450 1451 1451 1452 1452 1451 1450 1450 1450 1450 1449 1449 1450 1450 1450 1450 1450 1451 1451 1452 1453 1453 1453 1453 1454 1455 1455 1455 1455 1456 1456
1444 1444 1444 1443 1443 1444 1444 1445 1445 1445 1445 1446 1446 1446 1447 1447 1447 1447 1447 1447 1447 1447 1446 1447 1447 1447 1447 1447 1447 1448 1448 1449 1449 1450 1450 1450 1450 1450 1451 1451 1451 1452 1452 1453
1443 1442 1441 1440 1440 1440 1441 1441 1441 1442 1442 1442 1442 1443 1443 1444 1444 1444 1444 1444 1444 1444 1444 1444 1444 1444 1444 1444 1444 1445 1446 1446 1446 1447 1447 1447 1447 1447 1447 1448 1448 1449 1449 1450
1440 1439 1438 1438 1438 1438 1438 1438 1438 1439 1439 1440 1440 1440 1441 1441 1441 1442 1441 1442 1442 1442 1442 1441 1441 1441 1441 1441 1442 1443 1443 1443 1444 1444 1444 1445 1445 1445 1445 1446 1446 1447 1448 1449
1439 1437 1436 1435 1435 1435 1435 1435 1436 1436 1437 1437 1438 1438 1439 1439 1439 1439 1440 1440 1440 1440 1439 1439 1439 1439 1439 1440 1440 1441 1441 1441 1442 1442 1443 1443 1443 1443 1443 1444 1445 1446 1447 1447
1437 1435 1434 1434 1434 1434 1434 1434 1434 1434 1435 1436 1436 1437 1437 1438 1438 1439 1439 1439 1439 1438 1438 1438 1438 1438 1438 1439 1439 1440 1440 1440 1441 1441 1441 1442 1442 1442 1442 1443 1444 1445 1445 1446
1436 1435 1434 1434 1434 1434 1434 1433 1433 1434 1435 1435 1436 1436 1437 1437 1438 1438 1438 1438 1438 1438 1437 1437 1438 1438 1439 1439 1439 1440 1440 1440 1440 1441 1441 1441 1441 1441 1441 1442 1443 1444 1444 1445